Погода Александров Гай

Погода Александров Гай : погода сейчас, прогноз погоды и архив. Всё, что Вы хотите узнать о погоде Александров Гай!

Хотите узнать прогноз погоды Александров Гай? Тогда Вам сюда: Погода Александров Гай

Поиск расширенной информации на нашем сайте:

Другие новости

Новости СМИ2

Главная страница сайта

Новости сайта

03.07.2017

Напоминаем, что на нашем специализированном сайте Метеоцентр.Азия вы можете получить высокодетализированные автоматические прогнозы погоды по пунктам России, СНГ и мира в авиационном формате (включающие направление и скорость ветра, видимость, явления погоды, количество и форму облачности, нижнюю и верхнюю границу облачности).


Погода Александров Гай - сегодня

Время (UTC), дата Ветер
(°,м/с) 
Видим.   Явления Облачность Т
(°С)
Тd
(°С)
f(%) Тe
(°С)
Pmin
(гПа)
dP
(гПа)
Po
(мм)
O2
(г/м3)
Тmin Tmax R s Состояние
почвы
18 17.11.17 280 (З) 10 км    ясно 
-0.6 -1 97 -1  1028.1  2.6  769  311           
21 17.11.17 290 (З) 10 км    ясно 
-3 -3.4 97 -4  1028.9  0.8  769  314           
00 18.11.17 250 (З) 10 км    ясно 
-4.6 -5.7 92 -4  1029.1  0.1  769  316           
03 18.11.17 220 (ЮЗ) 10 км    3/0 средняя 
[Ac As]
-5.7 -6.9 91 -5  1029.4  0.3  770  317  -5.9         
06 18.11.17 210 (ЮЗ) 10 км    8/0 средняя 
[Ac As]
-0.5 -1.4 94 -2  1029.7  0.4  770  311           
09 18.11.17 230 (ЮЗ) 10 км    9/0 средняя, верхняя 
[Ac As|Ci fib]
+4.3 +0.4 76 +3  1029.7  770  305           
12 18.11.17 220 (ЮЗ) 10 км    9/0 средняя, верхняя 
[Ac As|Ci fib]
+3.9 +0.5 78 +3  1028.8  -1.1  769  306           
15 18.11.17 170 (Ю) 10 км    8/0 средняя 
[Ac As]
-1.4 -2.2 94 -3  1028.6  -0.3  769  312    +4.8       
18 18.11.17 150 (ЮВ) 10 км    ясно 
-1 -2.3 91 -3  1028.1  -0.5  769  311           
21 18.11.17 150 (ЮВ) 10 км    ясно 
-0.5 -0.9 97 -2  1027.6  -0.5  768  310           
00 19.11.17 130 (ЮВ) 10 км    ясно 
-2.6 -3.5 94 -4  1026.7  -0.8  768  313           
03 19.11.17 130 (ЮВ) 10 км    10/0 средняя 
[As op]
-0.9 -1.9 93 -2  1025.5  -1.2  767  310  -2.7         
06 19.11.17 130 (ЮВ) 10 км    9/0 средняя, верхняя 
[Ac trans|Ci fib]
-0.6 -1.1 96 -2  1024.9  -0.6  766  310           
09 19.11.17 130 (ЮВ) 10 км    9/9 800 м 
[Sc]
+1.4 -0.2 89 -1  1024.1  -1  766  307           
12 19.11.17 130 (ЮВ) 10 км    9/9 870 м 
[Sc]
+2 +0.5 90 +1  1022.2  -1  764  306           
15 19.11.17 140 (ЮВ) 10 км    10/10 750 м 
[Sc]
+2.3 +1 91 1021.6  -0.6  764  305    +2.4       
18 19.11.17 140 (ЮВ) 4000 м  слаб. снег  10/10 570 м 
[Frnb]
+1.7 +0.6 92 1021.1  -0.5  764  306           
21 19.11.17 150 (ЮВ) 10 км  {снег}  10/10 630 м 
[Sc]
+2.2 +0.8 90 +1  1020.4  -0.7  763  305           
00 20.11.17 120 (ЮВ) 10 км    6/0 средняя 
[Ac As]
+0.6 +0 96 1019.9  -0.5  763  307           
03 20.11.17 130 (ЮВ) 10 км    5/0 средняя 
[Ac As]
+0.9 +0.2 95 -1  1019.4  -0.5  762  306  -0.1    0.0     
06 20.11.17 140 (ЮВ) 10 км    9/0 средняя, верхняя 
[Ac As|Ci fib]
+2.7 +0.3 84 +1  1019.2  0.1  762  304           
09 20.11.17 110 (В) 10 км    10/0 верхняя 
[Ci fib]
+6.3 +1.6 72 +5  1018.1  -1.1  761  300           
12 20.11.17 110 (В) 10 км    10/0 средняя 
[As op]
+5.5 +1.5 75 +4  1017.2  -0.9  761  300           
15 20.11.17 100 (В) 10 км    10/0 средняя, верхняя 
[Ac As|Ci fib]
+2.4 +0.4 87 +1  1016.7  -0.5  760  304    +6.3       
18 20.11.17 100 (В) 10 км    10/0 средняя 
[As op]
+2.4 +0.9 90 +1  1015  -1.7  759  303           
Время (UTC), дата Ветер
(°,м/с) 
Видим.   Явления Облачность Т
(°С)
Тd
(°С)
f(%) Тe
(°С)
Pmin
(гПа)
dP
(гПа)
Po
(мм)
O2
(г/м3)
Тmin Tmax R s Состояние
почвы

Для получения пояснительной информации подведите курсор к названию столбца.

ПОГОДА Александров Гай - архив

Всё, что Вы хотите узнать о погоде Александров Гай - удобно и подробно!

Выберите нужную дату (начиная с 1 января 2015* года) и нажмите кнопку "Найти".
Будут отображены архивные сводки погоды по пункту Александров Гай, начиная с указанной даты.


Отображать данные в формате CSV (для использования в таблицах Excel)


Внимание! Наш архив погоды предназначен исключительно для личного некоммерческого использования в познавательных целях. Если Вам необходимы официальные справки о состоянии погоды (для производственных, юридических, коммерческих и т.п. целей), обращайтесь в органы Росгидромета.

*Примечание: данная дата относится к архиву по метеостанциям СССР (Россия, СНГ, Балтия).
Архив по метеостанциям Зарубежной Европы и Азии (кроме Китая) хранится 10 дней, по другим регионам земного шара (Китай, Африка, Америка, Австралия, Океания) - 1 день.

Александров Гай - район местоположения метеостанции


Название, широта, долгота, высота метеостанции:
Александров Гай 50.2°ш. 48.6°д. 25 м над ур. моря [Российская Федерация]

Дополнительная информация

В oтличие oт бoльшинства пoгoдных сайтoв мы публикуем пoдрoбную метеoинфoрмацию в детальнoм прoфессиoнальнoм фoрмате.

Характеристики температуры и влажнoсти вoздуха измеряются на высoте 2 м в тени вдали oт зданий и деревьев.
Скoрoсть ветра измеряется на высoте 10 м (на урoвне рoста челoвека скoрoсть ветра ниже в 1.5-2 раза). Если метеoстанция нахoдится в гoрoде или в лесу, тo скoрoсть ветра занижена на 2-4 м/с пo сравнению с oткрытым местoм. Скoрoсть ветра над акватoриями крупных рек и oзёр, а также на вершинах хoлмoв на 2-5 м/с выше, чем в oбычных услoвиях.
Атмoсфернoе давление в разных тoчках местнoсти мoжет значительнo oтличаться oт давления на метеoстанции, в зависимoсти oт услoвий рельефа (при пoдъёме на 10 м давление пoнижается примернo на 1 мм рт.ст.).